TimeEST,TemperatureF,Dew PointF,Humidity,Sea Level PressureIn,VisibilityMPH,Wind Direction,Wind SpeedMPH,Gust SpeedMPH,PrecipitationIn,Events,Conditions,WindDirDegrees,DateUTC
12:03 AM,29.8,29.8,100,30.42,10.0,Calm,Calm,-,N/A,,Clear,0,2013-12-01 05:03:00
12:23 AM,30.4,28.8,94,30.41,10.0,Calm,Calm,-,N/A,,Clear,0,2013-12-01 05:23:00
12:43 AM,30.4,28.4,92,30.40,10.0,Calm,Calm,-,N/A,,Clear,0,2013-12-01 05:43:00
1:03 AM,29.3,28.2,96,30.39,10.0,Calm,Calm,-,N/A,,Clear,0,2013-12-01 06:03:00
1:24 AM,31.1,30.7,99,30.38,10.0,Calm,Calm,-,N/A,,Clear,0,2013-12-01 06:24:00
1:44 AM,29.7,29.5,99,30.37,10.0,Calm,Calm,-,N/A,,Clear,0,2013-12-01 06:44:00
2:04 AM,29.3,29.3,100,30.37,10.0,Calm,Calm,-,N/A,,Clear,0,2013-12-01 07:04:00
2:24 AM,28.6,28.6,100,30.37,7.0,Calm,Calm,-,N/A,,Clear,0,2013-12-01 07:24:00
2:44 AM,28.2,28.2,100,30.36,7.0,Calm,Calm,-,N/A,,Clear,0,2013-12-01 07:44:00
3:04 AM,28.4,28.4,100,30.35,7.0,Calm,Calm,-,N/A,,Clear,0,2013-12-01 08:04:00
3:24 AM,28.2,28.2,100,30.34,10.0,Calm,Calm,-,N/A,,Clear,0,2013-12-01 08:24:00
3:44 AM,28.0,28.0,100,30.33,7.0,Calm,Calm,-,N/A,,Clear,0,2013-12-01 08:44:00
4:04 AM,28.8,28.8,100,30.32,10.0,Calm,Calm,-,N/A,,Clear,0,2013-12-01 09:04:00
4:24 AM,28.0,28.0,100,30.32,7.0,Calm,Calm,-,N/A,,Clear,0,2013-12-01 09:24:00
4:44 AM,28.2,28.2,100,30.31,7.0,Calm,Calm,-,N/A,,Clear,0,2013-12-01 09:44:00
5:04 AM,27.3,27.3,100,30.31,7.0,Calm,Calm,-,N/A,,Clear,0,2013-12-01 10:04:00
5:21 AM,27.5,27.5,100,30.30,7.0,Calm,Calm,-,N/A,,Clear,0,2013-12-01 10:21:00
5:50 AM,28.4,28.4,100,30.30,7.0,Calm,Calm,-,N/A,,Clear,0,2013-12-01 10:50:00
6:47 AM,28.4,28.4,100,30.30,7.0,Calm,Calm,-,N/A,,Clear,0,2013-12-01 11:47:00
7:47 AM,28.4,28.4,100,30.29,10.0,Calm,Calm,-,N/A,,Clear,0,2013-12-01 12:47:00
8:45 AM,32.0,32.0,100,30.29,10.0,Calm,Calm,-,N/A,,Clear,0,2013-12-01 13:45:00
9:47 AM,39.2,33.8,81,30.28,10.0,Calm,Calm,-,N/A,,Clear,0,2013-12-01 14:47:00
10:50 AM,42.8,33.8,70,30.26,10.0,Calm,Calm,-,N/A,,Clear,0,2013-12-01 15:50:00
12:54 PM,46.4,32.0,57,30.19,10.0,Calm,Calm,-,N/A,,Clear,0,2013-12-01 17:54:00
1:54 PM,46.4,32.0,57,30.16,10.0,Calm,Calm,-,N/A,,Clear,0,2013-12-01 18:54:00
2:50 PM,48.2,32.0,54,30.15,10.0,Calm,Calm,-,N/A,,Clear,0,2013-12-01 19:50:00
3:45 PM,46.4,32.0,57,30.14,10.0,Calm,Calm,-,N/A,,Clear,0,2013-12-01 20:45:00
4:50 PM,42.8,32.0,66,30.13,10.0,Calm,Calm,-,N/A,,Clear,0,2013-12-01 21:50:00
5:50 PM,42.8,32.0,66,30.13,10.0,Calm,Calm,-,N/A,,Scattered Clouds,0,2013-12-01 22:50:00
6:50 PM,41.0,32.0,70,30.12,10.0,Calm,Calm,-,N/A,,Scattered Clouds,0,2013-12-01 23:50:00
7:50 PM,41.0,33.8,76,30.11,10.0,Calm,Calm,-,N/A,,Scattered Clouds,0,2013-12-02 00:50:00
8:50 PM,41.0,32.0,70,30.09,10.0,Calm,Calm,-,N/A,,Scattered Clouds,0,2013-12-02 01:50:00
9:46 PM,37.2,32.2,82,30.09,10.0,Calm,Calm,-,N/A,,Clear,0,2013-12-02 02:46:00
10:06 PM,37.8,32.4,81,30.09,10.0,Calm,Calm,-,N/A,,Clear,0,2013-12-02 03:06:00
10:26 PM,36.1,32.0,85,30.08,10.0,Calm,Calm,-,N/A,,Clear,0,2013-12-02 03:26:00
10:46 PM,36.5,32.4,85,30.08,10.0,Calm,Calm,-,N/A,,Clear,0,2013-12-02 03:46:00
11:06 PM,35.2,32.0,88,30.08,10.0,Calm,Calm,-,N/A,,Clear,0,2013-12-02 04:06:00
11:26 PM,34.7,32.0,90,30.08,10.0,Calm,Calm,-,N/A,,Clear,0,2013-12-02 04:26:00
11:46 PM,34.0,31.6,91,30.07,10.0,Calm,Calm,-,N/A,,Clear,0,2013-12-02 04:46:00